Tracking 30986 objects as of 9-Jul-2025
HD Live streaming from Space Station
objects crossing your sky now

CZ-6A DEB

Track CZ-6A DEB now!
10-day predictions


NORAD ID: 54598
Int'l Code: 2022-151MY
Perigee: 628.1 km
Apogee: 712.8 km
Inclination: 98.9 °
Period: 98.0 minutes
Semi major axis: 7041 km
RCS: Unknown
Launch date: November 11, 2022
Source: People's Republic of China (PRC)
Launch site: Taiyaun Space Center, China (TSC)

Note: This is SATELLITE DEBRIS
Your satellite tracking list
Your tracking list is empty




NASA's NSSDC Master Catalog

Two Line Element Set (TLE):
1 54598U 22151MY  25190.48709903  .00007440  00000-0  12353-2 0  9990
2 54598  98.8978 270.0902 0060079 233.8124 125.7514 14.69297724140064
Source of the keplerian elements: AFSPC